Location: Cedar Brake
(32.2526°N, 97.8459°W)
Time: 21:25:00
(UTC+00:00)

Cosmos 2369 Rocket - Pass Details

Date: 22 April 2026
Orbit: 829 x 850 km, 71.0° (Epoch: 21 May)

Event Time Altitude Azimuth Distance (km) Brightness Sun altitude
Rises 03:10:06 0° 350° (N) 3,373 6.0 -24.8°
Reaches altitude 10° 03:12:48 10° 0° (N) 2,437 5.0 -25.2°
Enters shadow 03:17:02 31° 48° (NE) 1,410 3.2 -26.0°
